Погода в Бырдалыке

Погода в Бырдалыке : погода сейчас, прогноз погоды и архив. Всё, что Вы хотите узнать о погоде в Бырдалыке!

Хотите узнать прогноз погоды в Бырдалыке? Тогда Вам сюда: Погода в Бырдалыке

Поиск расширенной информации на нашем сайте:

Другие новости

Новости СМИ2

Главная страница сайта

Новости сайта

03.07.2017

Напоминаем, что на нашем специализированном сайте Метеоцентр.Азия вы можете получить высокодетализированные автоматические прогнозы погоды по пунктам России, СНГ и мира в авиационном формате (включающие направление и скорость ветра, видимость, явления погоды, количество и форму облачности, нижнюю и верхнюю границу облачности).


Погода в Бырдалыке - сегодня

Время (UTC), дата Ветер
(°,м/с) 
Видим.   Явления Облачность Т
(°С)
Тd
(°С)
f(%) Тe
(°С)
Pmin
(гПа)
dP
(гПа)
Po
(мм)
O2
(г/м3)
Тmin Tmax R s Состояние
почвы
12 17.02.18 050 (СВ) 10 км    4/0 верхняя 
[Ci sp]
+10.2 +1.9 56 +11  1028.6  -1.9  752  292           
15 17.02.18 070 (В) 10 км    8/0 верхняя 
[Ci sp]
+8.8 +2.7 66 +8  1027.9  -0.8  751  293    +10.4       
18 17.02.18 050 (СВ) 10 км    8/0 верхняя 
[Ci sp]
+6.1 +3 80 +5  1027.5  -0.6  751  295    +10.4       
21 17.02.18 020 (С) 8000 м    н/о 
+3.3 +0.9 84 +3  1024.7  -1.2  749  298  +3.5         
00 18.02.18 360 (С) 10 км    ясно 
+2.5 +1.2 91 +2  1025.3  -1.1  749  299           
03 18.02.18 360 (С) 10 км    4/0 верхняя 
[Ci sp]
+0.6 -0.5 92 +1  1025.7  0.2             
06 18.02.18 050 (СВ) 10 км    4/0 верхняя 
[Ci fib]
+6.7 +0.6 65 +6  1024.7  -0.4  749  294  +0.4         
09 18.02.18 050 (СВ) 10 км    3/0 верхняя 
[Ci fib]
+13.8 -2.2 33 +13  1022  -2.1  747  287           
12 18.02.18 050 (СВ) 10 км    3/0 верхняя 
[Ci fib]
+14.9 -2.7 30 +15  1020.4  -1.5  746  285           
15 18.02.18 050 (СВ) 10 км    ясно 
+10.1 -1.9 43 +10  1019.5  -1.1  745  290    +15.3       
18 18.02.18 050 (СВ) 10 км    ясно 
+7.2 +0.9 64 +7  1018.7  -1.1  744  292    +15.3       
21 18.02.18 050 (СВ) 10 км    ясно 
+5 +1.5 78 +4  1017.2  -1.7  743  294           
00 19.02.18 050 (СВ) 10 км    4/0 верхняя 
[Ci sp]
+3.8 +0.1 77 +3  1015.4  -1.8  742  295           
03 19.02.18 050 (СВ) 10 км    3/0 верхняя 
[Ci sp]
+3.6 +0.4 80 +3  1014.5  -0.9             
06 19.02.18 050 (СВ) 10 км    8/0 верхняя 
[Ci sp]
+9.2 +0 53 +9  1014  741  289  +3.4         
09 19.02.18 050 (СВ) 10 км    8/0 верхняя 
[Ci sp]
+16.3 -0.5 32 +17  1011.6  -1.7  740  281           
12 19.02.18 050 (СВ) 10 км    8/0 верхняя 
[Ci sp]
+19.6 -2.7 22 +20  1009.4  -1.9  738  278           
15 19.02.18 020 (С) 10 км    9/0 верхняя 
[Ci sp]
+15 +0.9 38 +16  1009.8  0.1  739  282    +19.8       
18 19.02.18 290 (З) 10 км    8/0 верхняя 
[Ci sp]
+10.7 +3.6 61 +10  1012.5  2.2  740  286    +19.8       
21 19.02.18 320 (СЗ) 10 км    9/9 600 м кучево-дожд. 
[Cb cap]
+8.2 +3 70 +7  1012.5  -0.3  740  289           
00 20.02.18 250 (З) 10 км    9/9 600 м кучево-дожд. 
[Cb cap]
+7.4 +2.1 69 +6  1014  1.4  741  290           
03 20.02.18 160 (Ю) 10 км    8/8 1000 м 
[Sc]
-2 -4.5 83 -3  1033.1             
06 20.02.18 250 (З) 10 км    9/9 1000 м 
[Sc]
+3.1 -2 69 +2  1029.5  3.3  752  300  -1.2         
09 20.02.18 280 (З) 45000 м    н/о 
+7.5 +0.3 60 +6  1017.9  744  292        596  мокрый или
старый снег
10-40% 
12 20.02.18 270 (З) 10 км  {ливн. осадки}  9/9 1000 м 
[Sc]
+7.6 +1.7 66 +7  1020.2  1.4  746  292           
Время (UTC), дата Ветер
(°,м/с) 
Видим.   Явления Облачность Т
(°С)
Тd
(°С)
f(%) Тe
(°С)
Pmin
(гПа)
dP
(гПа)
Po
(мм)
O2
(г/м3)
Тmin Tmax R s Состояние
почвы

Для получения пояснительной информации подведите курсор к названию столбца.

ПОГОДА в Бырдалыке - архив

Всё, что Вы хотите узнать о погоде в Бырдалыке - удобно и подробно!

Выберите нужную дату (начиная с 1 января 2015* года) и нажмите кнопку "Найти".
Будут отображены архивные сводки погоды по пункту Бырдалык, начиная с указанной даты.


Отображать данные в формате CSV (для использования в таблицах Excel)


Внимание! Наш архив погоды предназначен исключительно для личного некоммерческого использования в познавательных целях. Если Вам необходимы официальные справки о состоянии погоды (для производственных, юридических, коммерческих и т.п. целей), обращайтесь в органы Росгидромета.

*Примечание: данная дата относится к архиву по метеостанциям СССР (Россия, СНГ, Балтия).
Архив по метеостанциям Зарубежной Европы и Азии (кроме Китая) хранится 10 дней, по другим регионам земного шара (Китай, Африка, Америка, Австралия, Океания) - 1 день.

Бырдалык - район местоположения метеостанции


Название, широта, долгота, высота метеостанции:
Бырдалык 38.5°ш. 64.4°д. 212 м над ур. моря [Туркменистан]

Дополнительная информация

В oтличие oт бoльшинства пoгoдных сайтoв мы публикуем пoдрoбную метеoинфoрмацию в детальнoм прoфессиoнальнoм фoрмате.

Характеристики температуры и влажнoсти вoздуха измеряются на высoте 2 м в тени вдали oт зданий и деревьев.
Скoрoсть ветра измеряется на высoте 10 м (на урoвне рoста челoвека скoрoсть ветра ниже в 1.5-2 раза). Если метеoстанция нахoдится в гoрoде или в лесу, тo скoрoсть ветра занижена на 2-4 м/с пo сравнению с oткрытым местoм. Скoрoсть ветра над акватoриями крупных рек и oзёр, а также на вершинах хoлмoв на 2-5 м/с выше, чем в oбычных услoвиях.
Атмoсфернoе давление в разных тoчках местнoсти мoжет значительнo oтличаться oт давления на метеoстанции, в зависимoсти oт услoвий рельефа (при пoдъёме на 10 м давление пoнижается примернo на 1 мм рт.ст.).